Vorticity
8 9 8 6 5 5 5 3 5 7 1 9 9 6 5 9 8 7 9 10 9 8 8 8 6 5 4 3 3 3 2 4 5 6 4 4 8 8
-2 10 8 6 6 6 5 4 6 3 2 7 3 4 7 9 7 9 9 10 10 8 6 5 4 3 3 3 2 5 8 7 4 9 16 22 32 35
11 9 6 3 9 8 4 1 4 7 1 9 6 7 10 7 9 10 12 9 6 4 3 3 3 2 0 4 6 3 4 22 39 45 46 45 41 40
12 6 15 5 -9 -10 5 9 13 5 10 5 10 8 9 10 11 10 6 6 5 4 2 1 -0 4 8 1 6 29 54 46 34 25 23 21 11 12
0 -3 -1 6 19 13 14 1 8 5 9 10 8 11 11 13 7 7 5 6 3 1 1 2 4 -1 9 36 58 35 22 18 15 14 2 6 8 16
10 8 7 5 11 2 5 8 10 9 9 8 13 13 7 5 4 6 3 -1 -0 -2 1 3 5 38 54 34 19 16 12 11 14 18 22 19 6 19
13 6 8 9 11 8 9 8 11 6 13 12 7 6 6 5 5 2 2 1 1 0 8 42 52 44 20 14 13 12 11 13 14 17 20 27 15 11
0 11 15 7 6 9 10 7 13 13 7 5 5 4 4 3 2 2 2 0 5 50 60 54 22 9 11 9 8 9 10 10 14 15 16 18 27 10
4 2 9 12 10 8 14 10 5 6 5 7 7 5 4 0 2 2 8 30 70 59 20 10 7 10 9 11 10 8 10 14 15 15 16 15 18 23
11 11 7 10 12 11 5 5 4 6 3 4 1 -2 -3 3 11 30 55 61 29 10 8 13 13 12 8 9 11 12 16 16 17 16 14 19 27 26
8 11 13 10 4 5 6 7 5 4 3 4 3 2 11 33 49 56 35 12 13 11 9 12 12 8 9 11 16 21 17 15 15 13 18 22 33 28
12 8 4 6 6 6 5 4 1 0 -0 -2 11 36 52 45 36 17 8 13 4 7 5 7 9 9 8 20 26 19 14 15 13 14 16 21 33 29
6 5 6 2 1 3 -0 -2 0 2 3 24 57 40 36 18 10 8 10 4 7 9 9 7 12 20 37 38 21 17 12 8 12 13 13 20 32 30
3 6 3 1 3 3 2 1 3 17 53 54 37 29 12 9 9 7 8 8 10 12 16 24 32 30 27 22 21 15 16 12 10 13 12 17 24 28
7 3 0 3 2 1 2 12 42 66 39 39 14 10 10 9 7 7 6 10 24 23 20 21 36 27 18 15 17 14 18 20 12 19 27 29 24 23
4 3 3 2 3 13 37 62 52 44 23 10 9 10 8 7 4 12 25 24 24 25 20 27 19 13 10 14 28 28 21 21 12 14 13 19 16 15
3 0 -4 7 41 71 55 55 30 10 8 10 8 9 5 11 25 21 26 34 37 33 27 11 10 7 16 28 41 16 8 8 8 8 5 6 6 10
-1 6 47 81 57 53 33 10 9 9 8 7 9 6 20 24 21 23 27 26 27 13 12 15 19 25 11 13 11 17 14 11 8 7 11 24 20 11
42 86 55 54 35 8 11 8 10 5 9 7 9 19 22 20 20 18 18 15 13 14 20 22 15 15 17 7 -0 3 19 11 9 7 5 2 13 9
60 57 28 6 12 8 10 10 4 7 11 8 12 19 14 14 13 11 12 15 14 13 12 11 10 14 18 14 11 6 -5 8 12 18 15 11 8 8
18 3 13 12 7 9 11 7 7 7 9 8 12 15 15 16 16 16 15 13 12 9 10 13 12 11 11 10 8 11 9 7 8 2 6 13 12 11
12 12 9 6 8 7 7 7 8 7 8 6 12 14 15 14 12 12 13 10 8 9 9 12 13 12 13 13 11 8 6 3 6 11 14 18 26 31
8 10 10 9 7 8 7 7 8 8 10 6 8 16 15 12 10 10 12 9 7 13 16 10 5 7 11 14 12 4 6 18 19 14 18 32 30 35
Height
5699 5696 5694 5690 5686 5682 5678 5673 5668 5666 5663 5656 5649 5643 5638 5632 5626 5621 5616 5611 5605 5599 5593 5588 5584 5579 5574 5569 5564 5559 5554 5547 5542 5536 5530 5525 5519 5515
5688 5686 5682 5678 5674 5669 5664 5658 5654 5650 5646 5641 5634 5628 5622 5617 5611 5605 5599 5593 5586 5580 5573 5567 5562 5556 5550 5544 5537 5530 5522 5515 5508 5501 5494 5487 5480 5475
5677 5673 5670 5665 5660 5655 5650 5643 5638 5633 5630 5625 5618 5611 5606 5598 5592 5586 5579 5573 5566 5558 5551 5544 5538 5531 5523 5515 5506 5497 5488 5479 5472 5464 5457 5453 5447 5444
5666 5662 5658 5653 5647 5642 5636 5629 5623 5618 5613 5609 5602 5595 5588 5580 5573 5567 5560 5553 5545 5535 5528 5519 5511 5503 5492 5483 5473 5463 5453 5448 5443 5439 5434 5431 5427 5426
5653 5648 5644 5639 5634 5627 5622 5615 5609 5602 5595 5589 5583 5576 5569 5561 5554 5547 5540 5532 5522 5509 5499 5490 5481 5471 5459 5448 5440 5434 5430 5426 5423 5420 5416 5414 5411 5410
5641 5636 5631 5626 5619 5614 5607 5600 5593 5586 5578 5570 5563 5556 5549 5541 5533 5526 5521 5508 5499 5483 5471 5462 5452 5440 5427 5421 5418 5412 5409 5406 5403 5399 5397 5395 5394 5393
5628 5624 5617 5611 5605 5598 5591 5584 5577 5569 5561 5552 5546 5538 5530 5521 5512 5504 5494 5485 5474 5453 5442 5433 5421 5415 5406 5401 5397 5393 5389 5385 5383 5380 5379 5376 5376 5376
5615 5609 5603 5596 5589 5583 5575 5567 5559 5551 5542 5534 5526 5518 5509 5498 5489 5479 5468 5458 5451 5424 5412 5412 5401 5401 5392 5386 5379 5375 5370 5366 5364 5362 5360 5358 5356 5357
5602 5596 5588 5580 5574 5566 5558 5549 5541 5532 5521 5512 5504 5493 5486 5473 5463 5453 5439 5427 5416 5403 5395 5400 5386 5385 5376 5371 5362 5357 5351 5347 5345 5343 5341 5339 5338 5338
5589 5581 5572 5565 5557 5549 5542 5534 5526 5515 5504 5494 5481 5470 5457 5447 5434 5423 5411 5402 5397 5388 5377 5385 5373 5371 5364 5356 5345 5337 5329 5327 5325 5325 5324 5322 5320 5320
5573 5565 5558 5550 5541 5534 5526 5517 5508 5496 5482 5468 5454 5442 5431 5418 5405 5397 5390 5387 5383 5376 5360 5366 5361 5355 5349 5342 5330 5317 5310 5309 5308 5307 5306 5304 5302 5302
5558 5549 5542 5534 5525 5515 5506 5496 5487 5475 5462 5446 5429 5414 5403 5393 5385 5380 5377 5373 5367 5365 5347 5349 5344 5332 5334 5327 5317 5304 5299 5294 5292 5291 5289 5287 5286 5287
5544 5534 5525 5516 5507 5497 5485 5474 5464 5452 5438 5424 5409 5396 5387 5380 5374 5368 5362 5357 5352 5344 5331 5326 5325 5316 5307 5307 5304 5294 5289 5284 5280 5278 5274 5273 5274 5276
5529 5520 5510 5500 5489 5476 5463 5451 5438 5425 5412 5401 5393 5385 5380 5373 5365 5358 5349 5341 5332 5324 5317 5306 5304 5298 5294 5292 5289 5286 5278 5274 5271 5267 5264 5263 5264 5266
5513 5502 5491 5480 5467 5453 5439 5426 5414 5402 5394 5388 5384 5378 5372 5364 5355 5348 5337 5327 5318 5306 5298 5293 5290 5287 5284 5281 5279 5275 5269 5266 5259 5258 5257 5257 5257 5257
5495 5482 5468 5455 5441 5429 5415 5403 5395 5390 5386 5383 5378 5372 5364 5355 5344 5335 5326 5315 5308 5301 5289 5285 5282 5279 5277 5272 5268 5264 5260 5259 5256 5253 5253 5252 5252 5253
5475 5460 5444 5428 5414 5402 5394 5390 5387 5385 5382 5377 5372 5364 5355 5345 5334 5324 5315 5305 5297 5292 5288 5281 5276 5273 5269 5264 5261 5260 5259 5256 5253 5252 5249 5248 5246 5245
5450 5434 5418 5405 5396 5390 5388 5387 5385 5382 5377 5372 5365 5357 5347 5336 5328 5318 5310 5301 5295 5289 5286 5282 5278 5273 5268 5264 5262 5259 5256 5253 5250 5246 5244 5243 5241 5236
5425 5409 5400 5395 5391 5390 5388 5386 5383 5379 5374 5368 5360 5351 5341 5332 5325 5316 5309 5301 5294 5288 5283 5280 5276 5272 5269 5265 5259 5255 5254 5251 5248 5243 5238 5235 5235 5231
5410 5403 5399 5396 5394 5391 5388 5385 5381 5377 5370 5364 5355 5347 5339 5331 5324 5316 5309 5302 5296 5290 5285 5281 5277 5272 5268 5265 5261 5255 5247 5245 5241 5238 5233 5229 5225 5222
5408 5405 5402 5398 5395 5391 5387 5384 5379 5374 5368 5361 5353 5345 5338 5331 5323 5316 5309 5302 5297 5292 5287 5281 5275 5270 5266 5262 5258 5252 5246 5237 5231 5226 5221 5217 5214 5210
5409 5406 5402 5399 5395 5391 5387 5382 5377 5372 5365 5358 5351 5344 5336 5329 5322 5316 5310 5304 5298 5292 5286 5280 5275 5270 5264 5259 5254 5248 5242 5235 5226 5216 5207 5201 5195 5190
5409 5406 5402 5398 5394 5390 5386 5381 5376 5370 5364 5358 5351 5344 5336 5328 5321 5315 5309 5303 5298 5292 5286 5280 5273 5267 5261 5255 5249 5243 5234 5225 5216 5209 5199 5189 5183 5175